W7KKE-3 Weather Reports


Display with metric or nautical units.
time (UTC)temp
F
wind
direction
speed
MPH
gust
MPH
rain 1hr
in
rain 24hr
in
rain mn
in
humidity
%
barometer
mb
20141025151200 56 152 4.0 14.0 0.01 0.93 0.40 91 994.9
20141025150700 56 186 5.0 14.0 0.01 0.93 0.40 92 995.1
20141025150200 56 86 5.0 14.0 0.01 0.92 0.40 92 995.4
20141025145700 56 126 2.0 11.0 0.01 0.92 0.40 92 995.5
20141025145200 56 138 2.0 11.0 0.00 0.92 0.40 92 995.7
20141025144700 56 131 2.0 14.0 0.00 0.92 0.39 92 995.9
20141025144200 56 134 3.0 14.0 0.00 0.92 0.39 92 995.9
20141025143700 56 102 5.0 14.0 0.00 0.92 0.39 92 996.3
20141025143200 56 82 7.0 13.0 0.00 0.92 0.39 92 996.4
20141025142700 56 147 3.0 14.0 0.00 0.92 0.39 92 996.5
20141025142200 56 119 5.0 14.0 0.00 0.92 0.39 92 996.5
20141025141700 56 112 3.0 14.0 0.00 0.92 0.39 93 996.7
20141025141200 56 85 4.0 10.0 0.00 0.92 0.39 93 996.9
20141025140700 56 103 2.0 10.0 0.00 0.92 0.39 93 996.9
20141025140200 56 140 4.0 10.0 0.00 0.92 0.39 93 996.9
20141025135700 56 124 4.0 9.0 0.00 0.92 0.39 93 997.0
20141025135201 56 137 3.0 9.0 0.00 0.92 0.39 93 997.1
20141025134700 56 81 4.0 15.0 0.00 0.92 0.39 93 997.2
20141025134200 56 95 3.0 15.0 0.00 0.92 0.39 93 997.5
20141025133700 56 81 7.0 15.0 0.00 0.92 0.39 93 997.4
20141025133200 56 65 5.0 11.0 0.02 0.92 0.39 94 997.7
20141025132700 56 70 3.0 11.0 0.02 0.92 0.39 94 997.8
20141025132200 56 133 5.0 17.0 0.04 0.92 0.39 94 997.8
20141025131700 56 77 4.0 17.0 0.04 0.92 0.39 94 997.8
20141025131200 56 158 5.0 17.0 0.06 0.92 0.39 94 998.0
20141025130700 56 75 10.0 12.0 0.06 0.92 0.39 94 998.5
20141025130200 56 131 1.0 12.0 0.09 0.86 0.39 94 998.4
20141025125659 56 103 1.0 12.0 0.09 0.86 0.39 94 998.0
20141025125200 56 95 5.0 17.0 0.11 0.86 0.39 94 998.8
20141025124659 56 99 6.0 17.0 0.11 0.86 0.39 94 998.5
20141025124200 56 82 8.0 17.0 0.13 0.86 0.39 95 998.4
20141025123659 56 135 7.0 15.0 0.13 0.86 0.39 95 999.0
20141025123200 56 137 4.0 15.0 0.13 0.86 0.38 95 998.6
20141025122659 56 145 7.0 12.0 0.13 0.86 0.38 95 999.1
20141025122200 56 116 4.0 11.0 0.15 0.86 0.36 95 999.9
20141025121659 56 144 4.0 8.0 0.15 0.86 0.35 95 1000.3
20141025121200 56 144 5.0 10.0 0.24 0.86 0.34 95 1000.5
20141025120659 56 74 3.0 10.0 0.24 0.86 0.33 95 1000.7
20141025120200 56 161 5.0 10.0 0.29 0.62 0.32 95 1001.0
20141025115700 56 130 5.0 13.0 0.29 0.62 0.30 95 1001.1
20141025115159 56 148 5.0 13.0 0.27 0.62 0.29 95 1001.1
20141025114659 56 117 5.0 13.0 0.27 0.62 0.28 95 1000.9
20141025114159 55 127 5.0 10.0 0.25 0.62 0.27 95 1000.7
20141025113659 55 86 3.0 9.0 0.25 0.62 0.26 95 1000.7
20141025113159 55 95 3.0 9.0 0.23 0.62 0.26 95 1001.1
20141025112659 55 98 3.0 12.0 0.23 0.62 0.24 95 1001.1
20141025112159 55 65 5.0 12.0 0.19 0.62 0.22 95 1001.7
20141025111659 56 135 4.0 12.0 0.19 0.62 0.20 95 1001.8
20141025111159 56 130 6.0 21.0 0.08 0.62 0.17 95 1002.0
20141025110659 55 187 9.0 21.0 0.08 0.62 0.12 95 1001.9
20141025110159 55 168 9.0 21.0 0.00 0.54 0.03 95 1001.9
20141025105659 54 225 12.0 18.0 0.00 0.54 0.01 95 1001.4
20141025105159 54 0 5.0 5.0 0.00 0.54 0.01 95 1000.1
20141025104659 54 88 0.0 4.0 0.00 0.54 0.01 95 999.2
20141025104159 54 133 0.0 4.0 0.00 0.54 0.01 95 999.0
20141025103700 54 95 1.0 7.0 0.00 0.54 0.01 94 998.6
20141025103159 54 95 1.0 7.0 0.00 0.54 0.01 94 998.4
20141025102659 54 93 1.0 7.0 0.00 0.54 0.01 94 998.4
20141025102159 54 63 0.0 6.0 0.00 0.54 0.01 94 998.5
20141025101659 54 0 0.0 6.0 0.00 0.54 0.01 95 998.7
20141025101159 54 109 0.0 6.0 0.00 0.54 0.01 95 998.7
20141025100659 54 169 1.0 5.0 0.00 0.54 0.01 95 999.0
20141025100159 54 113 1.0 5.0 0.00 0.54 0.01 95 999.2
20141025095659 54 0 0.0 0.0 0.00 0.54 0.01 94 999.2
20141025095159 54 98 0.0 5.0 0.00 0.54 0.01 94 999.4
20141025094659 54 110 0.0 5.0 0.00 0.54 0.01 94 999.5
20141025094159 54 257 1.0 5.0 0.00 0.54 0.01 94 999.7
20141025093659 54 93 0.0 5.0 0.00 0.54 0.01 94 999.8
20141025093159 54 91 1.0 5.0 0.00 0.54 0.01 94 999.9
20141025092659 54 138 0.0 5.0 0.00 0.54 0.01 94 1000.1
20141025092159 54 107 0.0 4.0 0.00 0.54 0.01 94 1000.0
20141025091659 54 320 0.0 5.0 0.00 0.54 0.01 94 1000.3
20141025091159 54 105 0.0 5.0 0.00 0.54 0.01 94 1000.4
20141025090659 54 107 1.0 5.0 0.00 0.54 0.01 94 1000.6
20141025090159 54 7 0.0 3.0 0.00 0.54 0.01 94 1000.9
20141025085659 54 117 0.0 8.0 0.00 0.54 0.01 94 1001.1
20141025085159 54 89 3.0 8.0 0.00 0.54 0.01 94 1001.1
20141025084659 54 82 0.0 8.0 0.00 0.54 0.01 94 1001.1
20141025084159 55 91 0.0 10.0 0.00 0.54 0.01 94 1001.1
20141025082159 55 56 0.0 7.0 0.00 0.54 0.01 94 1001.4
20141025081659 55 107 0.0 8.0 0.00 0.54 0.01 94 1001.4
20141025081159 55 39 1.0 8.0 0.01 0.54 0.01 94 1001.5
20141025080659 55 294 2.0 8.0 0.01 0.54 0.01 94 1001.7
20141025080159 55 348 1.0 8.0 0.01 0.54 0.01 94 1001.8
20141025075659 55 128 2.0 8.0 0.01 0.54 0.01 94 1002.0
20141025075159 55 173 1.0 8.0 0.01 0.54 0.01 94 1002.0
20141025074659 55 82 1.0 9.0 0.01 0.54 0.01 94 1002.1
20141025074159 56 173 0.0 9.0 0.01 0.54 0.01 94 1002.3
20141025073659 56 347 0.0 9.0 0.01 0.54 0.01 94 1002.3
20141025073159 56 99 3.0 10.0 0.01 0.54 0.01 94 1002.3
20141025072659 56 121 0.0 10.0 0.01 0.54 0.01 94 1002.5
20141025071159 56 100 1.0 8.0 0.00 0.54 0.01 94 1002.6
20141025070659 56 133 1.0 5.0 0.00 0.54 0.00 94 1002.7
20141025064659 56 117 0.0 7.0 0.00 0.56 0.54 94 1002.9
20141025063159 56 91 2.0 11.0 0.00 0.56 0.54 95 1003.0
20141025062659 56 105 5.0 9.0 0.00 0.56 0.54 95 1003.1
20141025062159 56 106 2.0 9.0 0.00 0.56 0.54 95 1003.2
20141025061659 56 81 0.0 4.0 0.00 0.56 0.54 95 1003.2
20141025061159 56 74 0.0 9.0 0.00 0.56 0.54 95 1003.2
20141025060659 56 109 2.0 9.0 0.00 0.56 0.54 95 1003.3
20141025060159 55 338 0.0 9.0 0.00 0.56 0.54 95 1003.4
20141025055659 55 149 0.0 7.0 0.00 0.56 0.54 95 1003.4
20141025055159 55 128 0.0 7.0 0.00 0.56 0.54 95 1003.5
20141025054659 55 82 0.0 8.0 0.00 0.56 0.54 95 1003.4
20141025054159 55 93 0.0 8.0 0.00 0.56 0.54 95 1003.5
20141025053659 55 162 0.0 8.0 0.00 0.56 0.54 95 1003.4
20141025053159 55 170 1.0 6.0 0.00 0.56 0.54 95 1003.5
20141025052659 55 107 1.0 10.0 0.00 0.56 0.54 95 1003.5
20141025052159 55 82 1.0 10.0 0.00 0.56 0.54 95 1003.5
20141025051659 55 109 3.0 10.0 0.00 0.56 0.54 95 1003.6
20141025051159 55 218 2.0 8.0 0.00 0.56 0.54 95 1003.7
20141025045659 55 91 2.0 7.0 0.00 0.67 0.54 95 1003.7
20141025045159 55 134 1.0 7.0 0.00 0.67 0.54 95 1003.8
20141025044659 54 1 1.0 7.0 0.00 0.67 0.54 95 1003.9
20141025044159 54 177 1.0 9.0 0.00 0.67 0.54 95 1003.8
20141025043659 55 123 1.0 9.0 0.00 0.67 0.54 95 1003.9
20141025043159 54 68 3.0 9.0 0.00 0.67 0.54 95 1004.0
20141025042659 54 127 2.0 9.0 0.00 0.67 0.54 95 1004.1
20141025042159 54 81 2.0 13.0 0.00 0.67 0.54 95 1004.2
20141025041659 54 78 3.0 13.0 0.00 0.67 0.54 95 1004.3
20141025041159 54 127 3.0 13.0 0.00 0.67 0.54 95 1004.3
20141025040659 54 253 1.0 9.0 0.00 0.67 0.54 95 1004.3
20141025040159 54 162 2.0 9.0 0.00 0.69 0.54 95 1004.6
20141025035659 55 102 2.0 7.0 0.00 0.69 0.54 95 1004.5
20141025035159 55 105 3.0 7.0 0.00 0.69 0.54 95 1004.7
20141025034659 55 166 2.0 10.0 0.00 0.69 0.54 95 1004.7
20141025034159 55 78 2.0 10.0 0.00 0.69 0.54 95 1005.0
20141025033659 55 128 3.0 10.0 0.00 0.69 0.54 95 1004.9
20141025033159 55 110 2.0 9.0 0.00 0.69 0.54 95 1004.9
20141025032659 55 92 1.0 9.0 0.00 0.69 0.54 95 1004.9
20141025032159 55 93 2.0 11.0 0.00 0.69 0.54 95 1005.0
20141025031659 55 158 4.0 11.0 0.00 0.69 0.54 95 1005.0
20141025031159 55 86 4.0 11.0 0.00 0.69 0.54 95 1005.2
20141025030659 55 130 1.0 7.0 0.00 0.69 0.54 95 1005.4
20141025030159 55 142 0.0 7.0 0.00 0.69 0.54 95 1005.3
20141025025659 55 105 1.0 5.0 0.00 0.69 0.54 95 1005.4
20141025025159 55 112 0.0 11.0 0.00 0.69 0.54 95 1005.3
20141025024659 55 343 1.0 11.0 0.00 0.69 0.54 95 1005.4
20141025024159 55 86 5.0 11.0 0.00 0.69 0.54 95 1005.5
20141025023700 55 92 2.0 8.0 0.00 0.69 0.54 95 1005.7
20141025023200 55 98 0.0 10.0 0.00 0.69 0.54 95 1005.7
20141025022700 55 130 2.0 10.0 0.00 0.69 0.54 95 1005.7
20141025022159 55 107 0.0 10.0 0.00 0.69 0.54 95 1005.7
20141025021659 55 127 2.0 10.0 0.00 0.69 0.54 95 1005.7
20141025021200 55 128 3.0 12.0 0.00 0.69 0.54 95 1005.7
20141025020700 55 84 1.0 12.0 0.00 0.69 0.54 95 1005.7
20141025020200 55 86 0.0 12.0 0.01 0.69 0.54 95 1005.7
20141025015700 55 117 3.0 10.0 0.01 0.69 0.54 95 1005.8
20141025015200 55 99 3.0 10.0 0.02 0.69 0.54 95 1005.8
20141025014659 55 75 1.0 10.0 0.02 0.69 0.54 95 1006.0
20141025014200 55 96 2.0 10.0 0.03 0.69 0.54 95 1006.2
20141025013700 55 102 3.0 7.0 0.03 0.69 0.54 95 1006.3
20141025013200 55 156 2.0 7.0 0.08 0.69 0.54 95 1006.2
20141025012700 55 113 4.0 8.0 0.08 0.69 0.54 95 1006.2
20141025012200 55 152 3.0 8.0 0.14 0.69 0.54 95 1006.2
20141025011700 55 198 4.0 8.0 0.14 0.69 0.54 95 1006.1
20141025011200 55 130 3.0 7.0 0.19 0.69 0.54 95 1006.1
20141025010700 54 105 4.0 9.0 0.19 0.69 0.54 95 1006.4
20141025010200 54 133 2.0 9.0 0.22 0.54 0.54 95 1006.5
20141025005700 54 124 2.0 9.0 0.22 0.54 0.54 95 1006.6
20141025005200 54 137 2.0 9.0 0.23 0.53 0.53 95 1006.6
20141025004700 54 201 1.0 9.0 0.23 0.53 0.53 95 1006.7
20141025004200 54 187 3.0 9.0 0.24 0.52 0.52 95 1006.9
20141025003700 54 240 4.0 7.0 0.24 0.51 0.51 95 1007.0
20141025003200 54 127 2.0 10.0 0.20 0.50 0.50 95 1007.1
20141025002700 54 236 0.0 10.0 0.20 0.50 0.47 95 1007.4
20141025002200 54 123 4.0 10.0 0.16 0.50 0.44 95 1007.4
20141025001700 54 86 3.0 9.0 0.16 0.50 0.40 95 1007.5
20141025001200 54 100 3.0 8.0 0.12 0.50 0.38 95 1007.4
20141025000700 54 162 1.0 6.0 0.12 0.50 0.35 94 1007.4
20141025000200 54 112 0.0 6.0 0.09 0.38 0.33 94 1007.4
20141024235700 54 212 1.0 5.0 0.09 0.38 0.32 94 1007.5
20141024235200 54 120 2.0 8.0 0.08 0.38 0.30 94 1007.9
20141024234700 54 263 1.0 8.0 0.08 0.38 0.29 94 1008.0
20141024234200 54 106 0.0 8.0 0.07 0.38 0.28 94 1008.0
20141024233700 54 82 3.0 6.0 0.07 0.38 0.28 94 1008.2
20141024233200 54 224 0.0 5.0 0.06 0.38 0.26 94 1008.2
20141024232700 54 161 0.0 5.0 0.06 0.38 0.26 94 1008.4
20141024232200 54 149 0.0 5.0 0.04 0.38 0.25 94 1008.6
20141024231700 54 170 0.0 5.0 0.04 0.38 0.24 94 1008.8
20141024231200 54 0 0.0 0.0 0.03 0.38 0.24 94 1008.6
20141024230700 54 114 0.0 4.0 0.03 0.38 0.23 94 1008.8
20141024230200 54 263 0.0 4.0 0.03 0.35 0.22 94 1009.2
20141024225700 54 320 0.0 4.0 0.03 0.35 0.22 94 1009.1
20141024225200 54 88 0.0 3.0 0.03 0.35 0.22 94 1009.2
20141024224700 54 124 0.0 5.0 0.03 0.35 0.21 94 1009.5
20141024224200 54 154 2.0 5.0 0.04 0.35 0.21 94 1009.6
20141024223700 54 162 0.0 5.0 0.04 0.35 0.20 94 1009.7
20141024223200 54 156 3.0 11.0 0.06 0.35 0.20 94 1009.7
20141024222701 54 119 2.0 11.0 0.06 0.35 0.20 94 1009.5
20141024222200 54 326 1.0 11.0 0.10 0.35 0.20 94 1009.4
20141024221200 54 289 1.0 8.0 0.12 0.35 0.20 94 1009.4
20141024220700 54 142 1.0 8.0 0.12 0.35 0.20 94 1009.5
20141024220159 54 261 4.0 7.0 0.12 0.23 0.20 94 1009.5
20141024215659 54 326 2.0 4.0 0.12 0.23 0.19 94 1009.6
20141024215200 54 357 0.0 9.0 0.12 0.23 0.19 94 1009.6
20141024214700 54 313 2.0 9.0 0.12 0.23 0.18 94 1009.7
20141024214200 54 190 4.0 9.0 0.11 0.23 0.18 93 1009.9
20141024213659 54 288 3.0 6.0 0.11 0.23 0.16 93 1010.0
20141024213200 55 327 2.0 8.0 0.10 0.23 0.15 93 1010.2
20141024212700 55 29 3.0 8.0 0.10 0.23 0.14 93 1010.5
20141024212159 55 355 3.0 8.0 0.06 0.23 0.12 93 1010.9
20141024211659 55 308 1.0 6.0 0.06 0.23 0.10 93 1011.1
20141024211200 55 313 2.0 7.0 0.05 0.23 0.09 93 1011.4
20141024210700 55 312 0.0 7.0 0.05 0.23 0.08 93 1011.4
20141024210159 55 302 0.0 7.0 0.05 0.18 0.07 93 1011.3
20141024205659 56 4 2.0 5.0 0.05 0.18 0.07 93 1011.3
20141024205202 56 337 1.0 5.0 0.04 0.18 0.06 93 1011.2
20141024204701 56 316 0.0 4.0 0.04 0.18 0.06 93 1011.2
20141024204159 56 329 0.0 4.0 0.03 0.18 0.06 93 1011.4
20141024203659 56 0 1.0 4.0 0.03 0.18 0.05 93 1011.5
20141024203202 56 0 0.0 4.0 0.03 0.18 0.05 93 1011.7
20141024202659 56 40 0.0 4.0 0.03 0.18 0.05 93 1011.9
20141024202200 56 340 0.0 3.0 0.03 0.18 0.04 93 1012.0
20141024201659 56 0 0.0 3.0 0.03 0.18 0.04 93 1012.0
20141024201159 56 0 0.0 3.0 0.02 0.18 0.03 93 1012.1
20141024200700 56 168 0.0 3.0 0.02 0.18 0.03 93 1012.1
20141024200159 56 0 0.0 0.0 0.01 0.16 0.02 93 1012.2
20141024195200 56 0 0.0 0.0 0.01 0.16 0.02 93 1012.2
20141024193658 56 120 0.0 5.0 0.01 0.16 0.02 93 1012.2
20141024193158 56 57 2.0 3.0 0.00 0.16 0.01 93 1012.1
20141024192658 56 0 0.0 3.0 0.00 0.16 0.01 93 1012.2
20141024192158 56 281 0.0 3.0 0.00 0.16 0.01 93 1012.1
20141024190158 56 60 2.0 3.0 0.00 0.21 0.01 93 1012.3
20141024185658 56 117 0.0 6.0 0.00 0.21 0.01 93 1012.4
20141024183659 56 130 0.0 5.0 0.00 0.21 0.01 94 1012.6
20141024183158 56 113 0.0 5.0 0.00 0.21 0.01 94 1012.7
20141024181658 56 294 0.0 7.0 0.00 0.21 0.01 94 1012.8
20141024175658 56 109 0.0 7.0 0.00 0.52 0.01 94 1013.2
20141024175158 56 25 0.0 7.0 0.00 0.52 0.01 94 1013.2
20141024174658 56 263 0.0 4.0 0.00 0.52 0.01 95 1013.2
20141024172658 55 91 0.0 5.0 0.00 0.52 0.01 95 1013.5
20141024172159 55 275 0.0 5.0 0.00 0.52 0.01 95 1013.4
20141024164700 54 277 2.0 7.0 0.00 0.52 0.01 95 1013.7
20141024164159 54 137 0.0 7.0 0.00 0.52 0.01 95 1013.7
20141024163659 54 215 0.0 7.0 0.00 0.52 0.01 95 1013.9
20141024163159 54 36 2.0 7.0 0.00 0.52 0.01 95 1013.9
20141024162659 54 253 2.0 6.0 0.00 0.52 0.01 95 1014.2
20141024162159 54 134 3.0 6.0 0.00 0.52 0.01 95 1014.2
20141024161159 54 91 0.0 6.0 0.00 0.52 0.01 95 1014.3
20141024160659 54 113 0.0 6.0 0.00 0.52 0.01 95 1014.3
20141024160159 53 170 1.0 4.0 0.00 0.52 0.01 95 1014.4
20141024155659 53 12 1.0 5.0 0.00 0.52 0.01 95 1014.4
20141024155159 53 148 0.0 5.0 0.00 0.52 0.01 95 1014.4
20141024154659 53 75 0.0 5.0 0.00 0.52 0.01 95 1014.5
20141024154159 53 110 1.0 5.0 0.00 0.52 0.01 95 1014.5
20141024153659 53 156 0.0 5.0 0.00 0.52 0.01 95 1014.5
20141024153159 53 155 0.0 5.0 0.00 0.52 0.01 95 1014.5
20141024152659 53 74 1.0 4.0 0.00 0.52 0.01 95 1014.6
20141024152200 53 95 0.0 4.0 0.00 0.52 0.01 95 1014.6
20141024151659 53 218 0.0 4.0 0.00 0.52 0.01 95 1014.4